Погода в Маканшы

Казахстан     46°46′53″N   82°01′25″E
темп.,
°C
ветер,
м/с
пор.,
м/с
влажн.,
%
обл.,
%
осадки,
мм/ч
давл.,
гПа
погр.,
м
21 января, пт
пт2100:00−13всв2295100 0.0 103016
03:00−12всв339312 0.0 102832
06:00−12всв34915 0.0 102744
09:00−13всв34905 0.0 102641
12:00−7всв37855 0.0 1023167
15:00−6всв22875 0.0 102034
18:00−12св22875 0.0 102210
21:00−14св22843 0.0 102310
22 января, сб
сб2200:00−14св22811 0.0 102412
03:00−14св22800 0.0 102513
06:00−15св22800 0.0 102610
09:00−14всв22800 0.0 102818
12:00−8в23770 0.0 102769
15:00−8всв22811 0.0 102723
18:00−13св22825 0.0 102911
21:00−14св32805 0.0 103012
23 января, вс
вс2300:00−15всв22795 0.0 103110
03:00−16всв22815 0.0 103110
06:00−16всв22795 0.0 103112
09:00−15всв22795 0.0 103213
12:00−9всв227798 0.0 103039
15:00−9вюв1183100 0.0 103010
18:00−12всв2284100 0.0 103111
21:00−12всв2282100 0.0 103214
24 января, пн
пн2400:00−12всв2282100 0.0 103113
03:00−12всв2283100 0.0 103111
06:00−12всв2284100 0.0 103112
09:00−12всв2285100 0.0 103218
12:00−7вюв117698 0.0 103180
15:00−6ю1180100 0.0 103090
18:00−9всв1192100 0.0 103010
21:00−10всв2297100 0.1 103111
25 января, вт
вт2500:00−9в1196100 0.4 103018
03:00−9юв1197100 0.4 102914
06:00−9ююв1197100 1.1 102931
09:00−9ююз1296100 0.9 1030109
12:00−9юз3393100 1.7 1030244
15:00−12юз3394100 0.2 1031226
18:00−17ююз229990 0.3 103414
21:00−21юв2210094 0.1 103721